Home   Weather   Solothurn   Past weeks

Flag for Switzerland Past Weather in Solothurn, Solothurn, Switzerland — Yesterday and Last 2 Weeks

Now
33 °F

Chilly.


Feels Like: 33 °F
Forecast: 43 / 61 °F
Wind: 1 mph from South

Location: Grenchen

Current Time: Apr 24, 2017 at 7:46:04 am

Latest Report: Apr 24, 2017 at 7:00 am


Visibility: N/A

Pressure: 30.17 "Hg

Humidity: 84%

Dew Point: 29 °F

Location of SolothurnLocation

Past Weather in Solothurn — Graph

°F

Solothurn Temperature Yesterday

Maximum temperature yesterday: 59 °F (at 5:00 pm)
Minimum temperature yesterday: 40 °F (at 6:00 am)
Average temperature yesterday: 49 °F

High & Low Weather Summary for the Past Weeks

 TemperatureHumidityPressure
High74 °F (Apr 10, 4:00 pm)97% (Apr 9, 6:00 am)30.57 "Hg (Apr 9, 6:00 am)
Low25 °F (Apr 21, 6:00 am)23% (Apr 21, 5:00 pm)29.92 "Hg (Apr 13, 5:00 pm)
Average48 °F63%30.22 "Hg
* Reported Apr 9 6:00 am — Apr 24 6:00 am, Solothurn, Weather by CustomWeather, © 2017

Note: Actual official high and low records may vary slightly from our data, if they occured in-between our weather recording intervals... More about our weather records

Advertising

Solothurn Weather History for the Previous 24 Hours

Scroll right to see more
 ConditionsComfort  
Time TempWeatherWind HumidityBarometerVisibility
6:00 am
Mon, Apr 24
31 °FChilly.3 mph90%30.18 "HgN/A
5:00 am36 °FChilly.5 mph77%30.17 "HgN/A
4:00 am38 °FChilly.6 mph69%30.17 "HgN/A
3:00 am42 °FQuite cool.8 mph62%30.16 "HgN/A
2:00 am38 °FChilly.6 mph69%30.18 "HgN/A
1:00 am41 °FQuite cool.3 mph62%30.19 "HgN/A
12:00 am40 °FChilly.6 mph67%30.20 "HgN/A
11:00 pm
Sun, Apr 23
42 °FQuite cool.3 mph61%30.19 "HgN/A
10:00 pm42 °FQuite cool.5 mph62%30.20 "HgN/A
9:00 pm45 °FQuite cool.3 mph52%30.18 "HgN/A
8:00 pm50 °FCool.7 mph45%30.16 "HgN/A
7:00 pm56 °FRefreshingly cool.9 mph39%30.14 "HgN/A
6:00 pm58 °FRefreshingly cool.7 mph37%30.12 "HgN/A
5:00 pm59 °FRefreshingly cool.12 mph41%30.12 "HgN/A
4:00 pm58 °FRefreshingly cool.9 mph42%30.14 "HgN/A
3:00 pm57 °FRefreshingly cool.9 mph44%30.16 "HgN/A
2:00 pm56 °FRefreshingly cool.7 mph47%30.18 "HgN/A
1:00 pm55 °FCool.7 mph50%30.20 "HgN/A
12:00 pm53 °FCool.10 mph54%30.22 "HgN/A
11:00 am51 °FCool.9 mph57%30.23 "HgN/A
10:00 am50 °FCool.8 mph59%30.24 "HgN/A
9:00 am47 °FCool.9 mph63%30.25 "HgN/A
8:00 am44 °FQuite cool.5 mph75%30.26 "HgN/A
7:00 am40 °FChilly.1 mph84%30.26 "HgN/A
Weather by CustomWeather, © 2017

See weather overviewHow to use our weather pages